This is the latest recevied weather packets stored in our database for station/object AD7ZD. If no packets are shown the sender has not sent any weather packets the latest 10 day(s).
| Time | Temp. | Humidity | Pressure | Rain* | Wind** | Luminosity | Snow |
|---|---|---|---|---|---|---|---|
| 1777574839 | 18.33° C | 23% | 1015.9 hPa | 0 mm | - | 815 W/m² | - |
| 1777574537 | 18.33° C | 24% | 1015.9 hPa | 0 mm | - | 768 W/m² | - |
| 1777574233 | 18.89° C | 24% | 1015.7 hPa | 0 mm | - | 851 W/m² | - |
| 1777573927 | 18.89° C | 24% | 1015.9 hPa | 0 mm | - | 853 W/m² | - |
| 1777573623 | 17.78° C | 25% | 1016 hPa | 0 mm | - | 889 W/m² | - |
| 1777573319 | 18.33° C | 25% | 1016 hPa | 0 mm | - | 909 W/m² | - |
| 1777573015 | 17.78° C | 25% | 1016.1 hPa | 0 mm | - | 853 W/m² | - |
| 1777572711 | 17.22° C | 26% | 1016.1 hPa | 0 mm | - | 976 W/m² | - |
| 1777572406 | 17.78° C | 26% | 1016 hPa | 0 mm | - | 916 W/m² | - |
| 1777572102 | 17.78° C | 26% | 1016.1 hPa | 0 mm | - | 985 W/m² | - |
| 1777571797 | 17.22° C | 26% | 1016.2 hPa | 0 mm | - | 948 W/m² | - |
| 1777571494 | 17.22° C | 27% | 1016.2 hPa | 0 mm | - | 749 W/m² | - |
| 1777571191 | 17.78° C | 26% | 1016.3 hPa | 0 mm | - | 893 W/m² | - |
| 1777570886 | 16.67° C | 28% | 1016.2 hPa | 0 mm | - | 883 W/m² | - |
| 1777570582 | 17.22° C | 27% | 1016.3 hPa | 0 mm | - | 626 W/m² | - |
| 1777570280 | 17.22° C | 26% | 1016.2 hPa | 0 mm | - | 833 W/m² | - |
| 1777569975 | 16.67° C | 27% | 1016.1 hPa | 0 mm | - | 834 W/m² | - |
| 1777569671 | 15.56° C | 28% | 1016.2 hPa | 0 mm | - | 817 W/m² | - |
| 1777569367 | 16.67° C | 28% | 1016.2 hPa | 0 mm | - | 818 W/m² | - |
| 1777569064 | 16.11° C | 29% | 1016.3 hPa | 0 mm | - | 777 W/m² | - |
| 1777568760 | 16.11° C | 29% | 1016.3 hPa | 0 mm | - | 738 W/m² | - |
| 1777568458 | 15.56° C | 30% | 1016.3 hPa | 0 mm | - | 757 W/m² | - |
| 1777568154 | 15° C | 30% | 1016.4 hPa | 0 mm | - | 691 W/m² | - |
| 1777567851 | 16.11° C | 29% | 1016.6 hPa | 0 mm | - | 740 W/m² | - |
| 1777567547 | 15.56° C | 29% | 1016.6 hPa | 0 mm | - | 699 W/m² | - |
* Rain latest hour (hover to see other rain measurements)
** Current wind speed in m/s (hover to see current wind gust speed)